Weather History for KPTS - May, 2014

Change the Weather History Date:

Sunday, May 25, 2014

  Actual Average (KJLN) Record (KJLN)
Temperature  
Mean Temperature 73 °F 69 °F  
Max Temperature 83 °F 80 °F 92 °F (2006)
Min Temperature 63 °F 59 °F 44 °F (1979)
Degree Days  
Heating Degree Days 0 1  
Month to date heating degree days 60  
Since 1 July heating degree days 4063  
Cooling Degree Days 8 5  
Month to date cooling degree days 89  
Year to date cooling degree days 143  
Growing Degree Days 23 (Base 50)    
Moisture  
Dew Point 66 °F    
Average Humidity 67    
Maximum Humidity 100    
Minimum Humidity 53    
Precipitation  
Precipitation 0.02 in 0.16 in 2.34 in (1968)
Month to date precipitation 4.62  
Year to date precipitation 16.86  
Sea Level Pressure  
Sea Level Pressure 30.01 in    
Wind  
Wind Speed 5 mph (South)    
Max Wind Speed 13 mph    
Max Gust Speed 20 mph    
Visibility 8 miles    
Events Thunderstorm    
T = Trace of Precipitation, MM = Missing Value Source: NWS Daily Summary

Daily Weather History Graph

Daily Weather History Graph

Search for Another Location

Airport or City:

Trip Planner

Search our weather history database for the weather conditions in past years. The results will help you decide how hot, cold, wet, or windy it might be!

Date:

Astronomy

May. 25, 2014 Rise Set
Actual Time 6:02 AM CDT 8:29 PM CDT
Civil Twilight 5:32 AM CDT 8:59 PM CDT
Nautical Twilight 4:55 AM CDT 9:36 PM CDT
Astronomical Twilight 4:14 AM CDT 10:17 PM CDT
Moon 4:03 AM CDT (5/25) 5:34 PM CDT (5/25)
Length of Visible Light 15h 26m
Length of Day
14h 26m
Waning Crescent, 10% of the Moon is Illuminated
May 25
Waning Crescent
May 28
New
Jun 5
First Quarter
Jun 12
Full
Jun 19
Last Quarter

Hourly Weather History & Observations

Time (CDT) Temp. Heat Index Dew Point Humidity Pressure Visibility Wind Dir Wind Speed Gust Speed Precip Events Conditions
12:15 AM 68.5 °F - - N/A% 29.99 in 10.0 mi ESE 5.8 mph - N/A   Unknown
12:35 AM 68.4 °F - - N/A% 30.00 in 10.0 mi SE 4.6 mph - N/A   Unknown
12:55 AM 68.4 °F - - N/A% 30.00 in 7.0 mi SE 4.6 mph - N/A   Unknown
1:15 AM 68.4 °F - - N/A% 30.00 in 7.0 mi South 3.5 mph - N/A   Unknown
1:35 AM 67.6 °F - - N/A% 30.01 in 5.0 mi Calm Calm - N/A   Unknown
1:55 AM 66.9 °F - - N/A% 30.01 in 7.0 mi SSW 3.5 mph - N/A   Unknown
2:15 AM 65.8 °F - - N/A% 30.01 in 5.0 mi SSW 3.5 mph - N/A   Unknown
2:35 AM 65.8 °F - - N/A% 30.01 in 5.0 mi Calm Calm - N/A   Unknown
2:55 AM 65.1 °F - - N/A% 30.01 in 4.0 mi Calm Calm - N/A   Unknown
3:15 AM 65.7 °F - - N/A% 30.01 in 4.0 mi Calm Calm - N/A   Unknown
3:35 AM 65.8 °F - - N/A% 30.01 in 4.0 mi Calm Calm - N/A   Unknown
3:55 AM 64.9 °F - - N/A% 30.01 in 3.0 mi Calm Calm - N/A   Unknown
4:15 AM 64.8 °F - - N/A% 30.01 in 4.0 mi Calm Calm - N/A   Unknown
4:35 AM 64.4 °F - - N/A% 30.01 in 3.0 mi Calm Calm - N/A   Unknown
4:55 AM 64.0 °F - - N/A% 30.02 in 2.5 mi Calm Calm - N/A   Unknown
5:15 AM 63.7 °F - - N/A% 30.02 in 2.5 mi Calm Calm - N/A   Unknown
5:35 AM 63.7 °F - - N/A% 30.03 in 3.0 mi SSE 3.5 mph - N/A   Unknown
5:55 AM 63.7 °F - - N/A% 30.03 in 5.0 mi SE 3.5 mph - N/A   Unknown
6:15 AM 63.9 °F - - N/A% 30.03 in 5.0 mi Calm Calm - N/A   Unknown
6:35 AM 63.9 °F - - N/A% 30.04 in 4.0 mi South 3.5 mph - N/A   Unknown
6:55 AM 64.8 °F - - N/A% 30.04 in 4.0 mi SSE 3.5 mph - N/A   Unknown
7:15 AM 66.6 °F - - N/A% 30.04 in 5.0 mi SSE 3.5 mph - N/A   Unknown
7:35 AM 68.9 °F - - N/A% 30.04 in 7.0 mi SSE 4.6 mph - N/A   Unknown
7:55 AM 70.9 °F - - N/A% 30.05 in 10.0 mi South 6.9 mph - N/A   Unknown
8:15 AM 70.9 °F - 71.1 °F 100% 30.04 in 10.0 mi South 6.9 mph - N/A   Unknown
8:35 AM 71.1 °F - 69.8 °F 96% 30.05 in 10.0 mi South 6.9 mph - N/A   Unknown
9:15 AM 75.0 °F - 70.3 °F 85% 30.06 in 10.0 mi South 4.6 mph - N/A   Unknown
9:55 AM 76.3 °F - 66.4 °F 71% - 10.0 mi SSW 9.2 mph - N/A   Unknown
10:15 AM 77.4 °F - 66.4 °F 69% 30.05 in 10.0 mi SSW 10.4 mph - N/A   Unknown
10:35 AM 78.4 °F - 66.4 °F 66% 30.04 in 10.0 mi SSW 8.1 mph - N/A   Unknown
10:55 AM 78.4 °F - 65.8 °F 65% 30.04 in 10.0 mi SSW 8.1 mph - N/A   Unknown
11:15 AM 78.8 °F - 65.7 °F 64% 30.04 in 10.0 mi South 9.2 mph - N/A   Unknown
11:55 AM 81.0 °F 83.0 °F 66.0 °F 60% 30.03 in 10.0 mi South 8.1 mph - N/A   Unknown
12:15 PM 81.0 °F 82.7 °F 65.1 °F 58% 30.03 in 10.0 mi SSW 8.1 mph - N/A   Unknown
12:35 PM 81.0 °F 82.7 °F 64.8 °F 58% 30.04 in 10.0 mi South 9.2 mph - N/A   Unknown
12:55 PM 81.0 °F 82.7 °F 65.1 °F 58% 30.03 in 5.0 mi South 6.9 mph - N/A   Unknown
1:15 PM 81.0 °F 82.7 °F 64.9 °F 58% 30.03 in 10.0 mi SSW 6.9 mph - N/A   Unknown
1:55 PM 81.9 °F 83.5 °F 64.6 °F 56% 30.02 in 10.0 mi SSE 4.6 mph - N/A   Unknown
2:15 PM 82.6 °F 84.3 °F 65.1 °F 55% 30.01 in 10.0 mi SSW 8.1 mph - N/A   Unknown
2:35 PM 82.8 °F 84.5 °F 64.9 °F 55% 30.00 in 10.0 mi SSW 9.2 mph 16.1 mph N/A   Unknown
2:55 PM 83.3 °F 85.1 °F 65.3 °F 54% 30.00 in 10.0 mi South 6.9 mph - N/A   Unknown
3:15 PM 82.9 °F 84.8 °F 65.5 °F 55% 29.99 in 10.0 mi SSW 8.1 mph - N/A   Unknown
3:35 PM 83.5 °F 85.5 °F 65.8 °F 55% 29.98 in 10.0 mi SSE 11.5 mph - N/A   Unknown
3:55 PM 83.7 °F 85.5 °F 65.7 °F 54% 29.96 in 10.0 mi South 11.5 mph 19.6 mph N/A   Unknown
4:15 PM 83.7 °F 85.3 °F 65.1 °F 53% 29.95 in 10.0 mi South 10.4 mph 17.3 mph N/A   Unknown
4:35 PM 83.3 °F 85.1 °F 65.3 °F 54% 29.95 in 10.0 mi South 12.7 mph - N/A   Unknown
4:55 PM 83.3 °F 85.1 °F 65.1 °F 54% 29.94 in 10.0 mi South 10.4 mph - N/A   Unknown
5:15 PM 83.5 °F 85.3 °F 65.1 °F 54% 29.94 in 10.0 mi South 8.1 mph - N/A   Unknown
5:35 PM 83.3 °F 84.8 °F 64.8 °F 53% 29.95 in 10.0 mi SSW 11.5 mph - N/A   Unknown
5:55 PM 82.8 °F 84.5 °F 65.1 °F 55% 29.97 in 10.0 mi South 9.2 mph - N/A   Unknown
6:15 PM 82.0 °F 83.6 °F 64.6 °F 55% 29.96 in 10.0 mi South 6.9 mph - N/A   Unknown
6:35 PM 81.0 °F 82.7 °F 65.1 °F 58% 29.95 in 10.0 mi South 9.2 mph - N/A   Unknown
6:55 PM 81.0 °F 83.2 °F 66.2 °F 61% 29.95 in 10.0 mi South 9.2 mph - N/A   Unknown
7:15 PM 81.0 °F 83.6 °F 67.6 °F 64% 29.96 in 10.0 mi South 6.9 mph - N/A   Unknown
7:35 PM 79.9 °F - 67.3 °F 65% 29.96 in 10.0 mi South 8.1 mph - N/A Thunderstorm Unknown
7:55 PM 78.1 °F - 63.1 °F 60% 29.97 in 10.0 mi SSE 8.1 mph - N/A   Unknown
8:15 PM 76.1 °F - 60.6 °F 59% 29.97 in 10.0 mi SE 4.6 mph - N/A   Unknown
8:35 PM 76.1 °F - 63.3 °F 64% 29.98 in 10.0 mi SSE 4.6 mph - N/A   Unknown
8:55 PM 75.6 °F - 65.1 °F 70% 29.99 in 10.0 mi NNW 9.2 mph - N/A   Unknown
9:15 PM 71.6 °F - 63.5 °F 76% 29.99 in 10.0 mi North 4.6 mph - N/A   Unknown
9:35 PM 70.9 °F - 64.0 °F 79% 30.01 in 10.0 mi North 3.5 mph - N/A   Unknown
9:55 PM 70.9 °F - 65.1 °F 82% 30.01 in 10.0 mi NE 4.6 mph - N/A   Unknown
10:15 PM 70.9 °F - 66.0 °F 85% 30.01 in 10.0 mi NE 3.5 mph - N/A   Unknown
10:35 PM 70.9 °F - 67.1 °F 88% 30.01 in 10.0 mi Calm Calm - N/A   Unknown
10:55 PM 70.9 °F - 67.8 °F 90% 30.01 in 10.0 mi ENE 4.6 mph - N/A   Unknown
11:15 PM 70.9 °F - 68.4 °F 92% 30.04 in 10.0 mi West 12.7 mph 16.1 mph N/A   Unknown
11:35 PM 70.9 °F - 70.0 °F 97% 30.04 in 10.0 mi West 8.1 mph - N/A   Unknown
11:55 PM 70.9 °F - 70.3 °F 98% 30.03 in 4.0 mi Calm Calm - 0.02 in   Unknown